Weather History for KLXT - May, 2013

Change the Weather History Date:

Saturday, May 11, 2013

  Actual Average (KOJC) Record (KOJC)
Temperature  
Mean Temperature 56 °F 63 °F  
Max Temperature 64 °F 73 °F - ()
Min Temperature 48 °F 53 °F - ()
Degree Days  
Heating Degree Days 9 4  
Month to date heating degree days 52  
Since 1 July heating degree days 4883  
Cooling Degree Days 0 2  
Month to date cooling degree days 14  
Year to date cooling degree days 32  
Growing Degree Days 6 (Base 50)    
Moisture  
Dew Point 36 °F    
Average Humidity 52    
Maximum Humidity 90    
Minimum Humidity 27    
Precipitation  
Precipitation 0.00 in 0.18 in - ()
Month to date precipitation 2.03  
Year to date precipitation 11.34  
Sea Level Pressure  
Sea Level Pressure 30.15 in    
Wind  
Wind Speed 10 mph (NW)    
Max Wind Speed 25 mph    
Max Gust Speed 33 mph    
Visibility 10 miles    
Events      
T = Trace of Precipitation, MM = Missing Value Source: NWS Daily Summary

Daily Weather History Graph

Daily Weather History Graph

Search for Another Location

Airport or City:

Trip Planner

Search our weather history database for the weather conditions in past years. The results will help you decide how hot, cold, wet, or windy it might be!

Date:

Astronomy

May. 11, 2013 Rise Set
Actual Time 6:08 AM CDT 8:19 PM CDT
Civil Twilight 5:38 AM CDT 8:49 PM CDT
Nautical Twilight 5:02 AM CDT 9:26 PM CDT
Astronomical Twilight 4:22 AM CDT 10:06 PM CDT
Moon 7:16 AM CDT (5/11) 10:00 PM CDT (5/11)
Length of Visible Light 15h 11m
Length of Day
14h 11m
Waxing Crescent, 3% of the Moon is Illuminated
May 11
Waxing Crescent
May 17
First Quarter
May 24
Full
May 31
Last Quarter
Jun 8
New

Hourly Weather History & Observations

Time (CDT) Temp. Dew Point Humidity Pressure Visibility Wind Dir Wind Speed Gust Speed Precip Events Conditions
12:53 AM 52.0 °F 48.9 °F 89% 30.06 in 10.0 mi SW 4.6 mph - N/A   Clear
1:53 AM 52.0 °F 48.0 °F 86% 30.06 in 10.0 mi SW 4.6 mph - N/A   Clear
2:53 AM 52.0 °F 48.0 °F 86% 30.05 in 10.0 mi SW 4.6 mph - N/A   Clear
3:53 AM 48.9 °F 46.0 °F 90% 30.05 in 10.0 mi WSW 5.8 mph - N/A   Clear
4:53 AM 50.0 °F 46.0 °F 86% 30.05 in 10.0 mi WSW 5.8 mph - N/A   Clear
5:53 AM 50.0 °F 45.0 °F 83% 30.06 in 10.0 mi West 5.8 mph - N/A   Clear
6:53 AM 50.0 °F 46.0 °F 86% 30.07 in 10.0 mi West 5.8 mph - N/A   Clear
7:53 AM 55.9 °F 48.0 °F 75% 30.09 in 10.0 mi WNW 10.4 mph - N/A   Clear
8:53 AM 57.9 °F 43.0 °F 58% 30.12 in 10.0 mi North 16.1 mph 24.2 mph N/A   Clear
9:53 AM 59.0 °F 30.9 °F 35% 30.14 in 10.0 mi North 25.3 mph 33.4 mph N/A   Clear
10:53 AM 60.1 °F 32.0 °F 35% 30.17 in 10.0 mi North 21.9 mph 29.9 mph N/A   Clear
11:53 AM 62.1 °F 34.0 °F 35% 30.19 in 10.0 mi North 18.4 mph 25.3 mph N/A   Clear
12:53 PM 62.1 °F 33.1 °F 34% 30.19 in 10.0 mi North 20.7 mph 27.6 mph N/A   Clear
1:53 PM 63.0 °F 33.1 °F 33% 30.19 in 10.0 mi NNW 15.0 mph 27.6 mph N/A   Clear
2:53 PM 64.0 °F 30.9 °F 29% 30.19 in 10.0 mi North 20.7 mph 28.8 mph N/A   Clear
3:53 PM 64.0 °F 30.0 °F 28% 30.19 in 10.0 mi NNW 18.4 mph 25.3 mph N/A   Clear
4:53 PM 64.0 °F 28.9 °F 27% 30.18 in 10.0 mi NNW 18.4 mph 25.3 mph N/A   Clear
5:53 PM 64.0 °F 28.9 °F 27% 30.18 in 10.0 mi North 18.4 mph - N/A   Clear
6:53 PM 61.0 °F 28.9 °F 30% 30.18 in 10.0 mi North 16.1 mph - N/A   Clear
7:53 PM 59.0 °F 25.0 °F 27% 30.19 in 10.0 mi North 12.7 mph 20.7 mph N/A   Clear
8:53 PM 55.0 °F 26.1 °F 33% 30.21 in 10.0 mi North 9.2 mph - N/A   Clear
9:53 PM 53.1 °F 27.0 °F 37% 30.23 in 10.0 mi North 10.4 mph 19.6 mph N/A   Clear
10:53 PM 50.0 °F 28.0 °F 43% 30.25 in 10.0 mi North 6.9 mph - N/A   Clear
11:53 PM 48.9 °F 28.0 °F 44% 30.25 in 10.0 mi NNW 4.6 mph - N/A   Clear